Time,TemperatureF,DewpointF,PressureIn,WindDirection,WindDirectionDegrees,WindSpeedMPH,WindSpeedGustMPH,Humidity,HourlyPrecipIn,Conditions,Clouds,dailyrainin,SoftwareType,DateUTC
2013-01-09 00:04:00,46.0,27.0,-100.00,WSW,254,6.0,9.0,47,0.00,,,0.00,meteohub,2013-01-09 08:04:00,
2013-01-09 00:09:00,46.6,27.5,-100.00,WSW,252,5.0,8.0,47,0.00,,,0.00,meteohub,2013-01-09 08:09:00,
2013-01-09 00:14:00,46.9,27.7,-100.00,WSW,251,5.0,7.0,47,0.00,,,0.00,meteohub,2013-01-09 08:14:00,
2013-01-09 00:19:00,47.1,25.7,-100.00,WSW,251,1.0,7.0,43,0.00,,,0.00,meteohub,2013-01-09 08:19:00,
2013-01-09 00:24:00,47.1,25.2,-100.00,WSW,251,0.0,7.0,42,0.00,,,0.00,meteohub,2013-01-09 08:24:00,
2013-01-09 00:29:00,46.9,24.4,-100.00,WSW,251,0.0,6.0,41,0.00,,,0.00,meteohub,2013-01-09 08:29:00,
2013-01-09 00:34:00,46.2,23.9,-100.00,WSW,250,2.0,5.0,41,0.00,,,0.00,meteohub,2013-01-09 08:34:00,
2013-01-09 00:39:00,46.0,24.3,-100.00,WSW,250,3.0,3.0,42,0.00,,,0.00,meteohub,2013-01-09 08:39:00,
2013-01-09 00:44:00,45.9,24.1,-100.00,WSW,250,0.0,3.0,42,0.00,,,0.00,meteohub,2013-01-09 08:44:00,
2013-01-09 00:49:00,45.7,25.0,-100.00,WSW,250,0.0,3.0,44,0.00,,,0.00,meteohub,2013-01-09 08:49:00,
2013-01-09 00:54:00,45.1,23.9,-100.00,WSW,250,0.0,3.0,43,0.00,,,0.00,meteohub,2013-01-09 08:54:00,
2013-01-09 00:59:00,44.8,23.7,-100.00,WSW,250,0.0,3.0,43,0.00,,,0.00,meteohub,2013-01-09 08:59:00,
2013-01-09 01:04:00,44.4,23.9,-100.00,WSW,251,2.0,0.0,44,0.00,,,0.00,meteohub,2013-01-09 09:04:00,
2013-01-09 01:09:00,44.2,23.7,-100.00,WSW,251,1.0,3.0,44,0.00,,,0.00,meteohub,2013-01-09 09:09:00,
2013-01-09 01:14:00,44.1,23.5,-100.00,WSW,251,2.0,3.0,44,0.00,,,0.00,meteohub,2013-01-09 09:14:00,
2013-01-09 01:19:00,43.5,23.5,-100.00,WSW,251,0.0,3.0,45,0.00,,,0.00,meteohub,2013-01-09 09:19:00,
2013-01-09 01:24:00,43.5,23.5,-100.00,WSW,251,0.0,3.0,45,0.00,,,0.00,meteohub,2013-01-09 09:24:00,
2013-01-09 01:29:00,43.5,24.1,-100.00,WSW,251,0.0,3.0,46,0.00,,,0.00,meteohub,2013-01-09 09:29:00,
2013-01-09 01:34:00,43.3,23.4,-100.00,WSW,251,1.0,2.0,45,0.00,,,0.00,meteohub,2013-01-09 09:34:00,
2013-01-09 01:39:00,43.3,23.9,-100.00,WSW,251,0.0,3.0,46,0.00,,,0.00,meteohub,2013-01-09 09:39:00,
2013-01-09 01:44:00,43.3,24.4,-100.00,WSW,251,1.0,3.0,47,0.00,,,0.00,meteohub,2013-01-09 09:44:00,
2013-01-09 01:49:00,43.3,23.9,-100.00,WSW,251,0.0,3.0,46,0.00,,,0.00,meteohub,2013-01-09 09:49:00,
2013-01-09 01:54:00,43.5,24.1,-100.00,WSW,251,0.0,3.0,46,0.00,,,0.00,meteohub,2013-01-09 09:54:00,
2013-01-09 01:59:00,43.3,23.9,-100.00,WSW,251,2.0,3.0,46,0.00,,,0.00,meteohub,2013-01-09 09:59:00,
2013-01-09 02:04:00,43.3,23.9,-100.00,WSW,251,2.0,3.0,46,0.00,,,0.00,meteohub,2013-01-09 10:04:00,
2013-01-09 02:09:00,43.3,23.9,-100.00,WSW,249,2.0,3.0,46,0.00,,,0.00,meteohub,2013-01-09 10:09:00,
2013-01-09 02:14:00,43.5,24.6,-100.00,WSW,245,4.0,5.0,47,0.00,,,0.00,meteohub,2013-01-09 10:14:00,
2013-01-09 02:19:00,43.5,24.1,-100.00,WSW,241,3.0,5.0,46,0.00,,,0.00,meteohub,2013-01-09 10:19:00,
2013-01-09 02:24:00,43.5,24.6,-100.00,WSW,238,4.0,6.0,47,0.00,,,0.00,meteohub,2013-01-09 10:24:00,
2013-01-09 02:29:00,43.7,25.3,-100.00,SW,228,5.0,6.0,48,0.00,,,0.00,meteohub,2013-01-09 10:29:00,
2013-01-09 02:34:00,43.9,25.5,-100.00,SW,228,3.0,6.0,48,0.00,,,0.00,meteohub,2013-01-09 10:34:00,
2013-01-09 02:39:00,43.7,25.3,-100.00,SW,228,2.0,6.0,48,0.00,,,0.00,meteohub,2013-01-09 10:39:00,
2013-01-09 02:44:00,43.9,25.9,-100.00,SW,228,2.0,6.0,49,0.00,,,0.00,meteohub,2013-01-09 10:44:00,
2013-01-09 02:49:00,44.1,25.7,-100.00,SW,228,3.0,5.0,48,0.00,,,0.00,meteohub,2013-01-09 10:49:00,
2013-01-09 02:54:00,44.2,25.3,-100.00,SW,229,4.0,4.0,47,0.00,,,0.00,meteohub,2013-01-09 10:54:00,
2013-01-09 02:59:00,44.4,25.5,-100.00,SW,229,3.0,5.0,47,0.00,,,0.00,meteohub,2013-01-09 10:59:00,
2013-01-09 03:04:00,44.6,25.7,-100.00,SW,229,0.0,5.0,47,0.00,,,0.00,meteohub,2013-01-09 11:04:00,
2013-01-09 03:09:00,44.6,25.2,-100.00,SW,229,0.0,5.0,46,0.00,,,0.00,meteohub,2013-01-09 11:09:00,
2013-01-09 03:14:00,44.4,25.5,-100.00,SW,229,0.0,4.0,47,0.00,,,0.00,meteohub,2013-01-09 11:14:00,
2013-01-09 03:19:00,44.2,25.3,-100.00,SW,229,0.0,4.0,47,0.00,,,0.00,meteohub,2013-01-09 11:19:00,
2013-01-09 03:24:00,44.1,25.2,-100.00,SW,229,1.0,0.0,47,0.00,,,0.00,meteohub,2013-01-09 11:24:00,
2013-01-09 03:29:00,43.9,25.0,-100.00,SW,229,0.0,2.0,47,0.00,,,0.00,meteohub,2013-01-09 11:29:00,
2013-01-09 03:34:00,43.7,24.8,-100.00,SW,229,0.0,3.0,47,0.00,,,0.00,meteohub,2013-01-09 11:34:00,
2013-01-09 03:39:00,43.5,24.6,-100.00,SW,229,0.0,3.0,47,0.00,,,0.00,meteohub,2013-01-09 11:39:00,
2013-01-09 03:44:00,43.2,24.8,-100.00,SW,229,1.0,2.0,48,0.00,,,0.00,meteohub,2013-01-09 11:44:00,
2013-01-09 03:50:00,42.6,24.8,-100.00,SW,229,1.0,1.0,49,0.00,,,0.00,meteohub,2013-01-09 11:50:00,
2013-01-09 03:55:00,43.0,25.2,-100.00,SW,229,0.0,3.0,49,0.00,,,0.00,meteohub,2013-01-09 11:55:00,
2013-01-09 04:00:00,42.8,25.0,-100.00,SW,229,0.0,3.0,49,0.00,,,0.00,meteohub,2013-01-09 12:00:00,
2013-01-09 04:05:00,42.6,24.8,-100.00,SW,229,0.0,3.0,49,0.00,,,0.00,meteohub,2013-01-09 12:05:00,
2013-01-09 04:10:00,42.4,24.6,-100.00,SW,229,0.0,1.0,49,0.00,,,0.00,meteohub,2013-01-09 12:10:00,
2013-01-09 04:15:00,42.3,24.4,-100.00,SW,229,0.0,0.0,49,0.00,,,0.00,meteohub,2013-01-09 12:15:00,
2013-01-09 04:20:00,42.1,24.8,-100.00,SW,229,0.0,0.0,50,0.00,,,0.00,meteohub,2013-01-09 12:20:00,
2013-01-09 04:25:00,42.1,24.3,-100.00,SW,229,0.0,0.0,49,0.00,,,0.00,meteohub,2013-01-09 12:25:00,
2013-01-09 04:30:00,41.9,24.1,-100.00,SW,229,0.0,0.0,49,0.00,,,0.00,meteohub,2013-01-09 12:30:00,
2013-01-09 04:35:00,41.7,23.9,-100.00,SW,229,0.0,0.0,49,0.00,,,0.00,meteohub,2013-01-09 12:35:00,
2013-01-09 04:40:00,41.5,24.3,-100.00,SW,229,0.0,0.0,50,0.00,,,0.00,meteohub,2013-01-09 12:40:00,
2013-01-09 04:45:00,41.4,23.7,-100.00,SW,229,0.0,0.0,49,0.00,,,0.00,meteohub,2013-01-09 12:45:00,
2013-01-09 04:50:00,41.2,23.9,-100.00,SW,229,0.0,0.0,50,0.00,,,0.00,meteohub,2013-01-09 12:50:00,
2013-01-09 04:55:00,41.2,23.9,-100.00,SW,229,0.0,0.0,50,0.00,,,0.00,meteohub,2013-01-09 12:55:00,
2013-01-09 05:00:00,41.2,23.9,-100.00,SW,229,1.0,0.0,50,0.00,,,0.00,meteohub,2013-01-09 13:00:00,
2013-01-09 05:05:00,40.8,24.1,-100.00,SW,229,1.0,1.0,51,0.00,,,0.00,meteohub,2013-01-09 13:05:00,
2013-01-09 05:10:00,40.6,23.9,-100.00,SW,229,0.0,1.0,51,0.00,,,0.00,meteohub,2013-01-09 13:10:00,
2013-01-09 05:15:00,40.5,23.7,-100.00,SW,229,0.0,2.0,51,0.00,,,0.00,meteohub,2013-01-09 13:15:00,
2013-01-09 05:20:00,40.5,24.3,-100.00,SW,229,0.0,1.0,52,0.00,,,0.00,meteohub,2013-01-09 13:20:00,
2013-01-09 05:25:00,40.5,24.3,-100.00,SW,229,0.0,0.0,52,0.00,,,0.00,meteohub,2013-01-09 13:25:00,
2013-01-09 05:30:00,40.3,24.1,-100.00,SW,229,0.0,0.0,52,0.00,,,0.00,meteohub,2013-01-09 13:30:00,
2013-01-09 05:35:00,40.3,24.1,-100.00,SW,229,0.0,0.0,52,0.00,,,0.00,meteohub,2013-01-09 13:35:00,
2013-01-09 05:40:00,39.9,23.7,-100.00,SW,229,0.0,0.0,52,0.00,,,0.00,meteohub,2013-01-09 13:40:00,
2013-01-09 05:45:00,39.9,23.7,-100.00,SW,229,0.0,0.0,52,0.00,,,0.00,meteohub,2013-01-09 13:45:00,
2013-01-09 05:50:00,39.7,23.5,-100.00,SW,229,0.0,0.0,52,0.00,,,0.00,meteohub,2013-01-09 13:50:00,
2013-01-09 05:55:00,39.7,24.1,-100.00,SW,229,0.0,0.0,53,0.00,,,0.00,meteohub,2013-01-09 13:55:00,
2013-01-09 06:00:00,39.7,24.1,-100.00,SW,229,0.0,0.0,53,0.00,,,0.00,meteohub,2013-01-09 14:00:00,
2013-01-09 06:05:00,39.6,23.4,-100.00,SW,229,0.0,0.0,52,0.00,,,0.00,meteohub,2013-01-09 14:05:00,
2013-01-09 06:10:00,39.6,23.9,-100.00,SW,229,0.0,0.0,53,0.00,,,0.00,meteohub,2013-01-09 14:10:00,
2013-01-09 06:15:00,39.6,23.9,-100.00,SW,229,0.0,0.0,53,0.00,,,0.00,meteohub,2013-01-09 14:15:00,
2013-01-09 06:20:00,39.6,23.9,-100.00,SW,229,0.0,0.0,53,0.00,,,0.00,meteohub,2013-01-09 14:20:00,
2013-01-09 06:25:00,39.6,23.9,-100.00,SW,229,0.0,0.0,53,0.00,,,0.00,meteohub,2013-01-09 14:25:00,
2013-01-09 06:30:00,39.7,24.1,-100.00,SW,229,0.0,0.0,53,0.00,,,0.00,meteohub,2013-01-09 14:30:00,
2013-01-09 06:35:00,39.7,24.1,-100.00,SW,229,2.0,2.0,53,0.00,,,0.00,meteohub,2013-01-09 14:35:00,
2013-01-09 06:40:00,39.7,24.1,-100.00,SW,229,2.0,3.0,53,0.00,,,0.00,meteohub,2013-01-09 14:40:00,
2013-01-09 06:45:00,39.6,23.9,-100.00,SW,229,0.0,3.0,53,0.00,,,0.00,meteohub,2013-01-09 14:45:00,
2013-01-09 06:51:00,39.7,24.1,-100.00,SW,229,1.0,3.0,53,0.00,,,0.00,meteohub,2013-01-09 14:51:00,
2013-01-09 06:56:00,39.7,24.1,-100.00,SW,229,2.0,3.0,53,0.00,,,0.00,meteohub,2013-01-09 14:56:00,
2013-01-09 07:01:00,39.7,24.1,-100.00,SW,229,1.0,3.0,53,0.00,,,0.00,meteohub,2013-01-09 15:01:00,
2013-01-09 07:06:00,39.6,23.9,-100.00,SW,229,0.0,3.0,53,0.00,,,0.00,meteohub,2013-01-09 15:06:00,
2013-01-09 07:11:00,39.6,24.3,-100.00,SW,229,0.0,3.0,54,0.00,,,0.00,meteohub,2013-01-09 15:11:00,
2013-01-09 07:16:00,39.7,25.0,-100.00,SW,229,2.0,3.0,55,0.00,,,0.00,meteohub,2013-01-09 15:16:00,
2013-01-09 07:21:00,39.9,24.6,-100.00,SW,229,2.0,3.0,54,0.00,,,0.00,meteohub,2013-01-09 15:21:00,
2013-01-09 07:26:00,40.1,24.8,-100.00,SW,229,2.0,3.0,54,0.00,,,0.00,meteohub,2013-01-09 15:26:00,
2013-01-09 07:31:00,40.3,25.0,-100.00,SW,229,2.0,3.0,54,0.00,,,0.00,meteohub,2013-01-09 15:31:00,
2013-01-09 07:36:00,40.6,25.3,-100.00,SW,229,2.0,3.0,54,0.00,,,0.00,meteohub,2013-01-09 15:36:00,
2013-01-09 07:41:00,40.8,25.5,-100.00,SW,229,0.0,3.0,54,0.00,,,0.00,meteohub,2013-01-09 15:41:00,
2013-01-09 07:46:00,41.2,25.3,-100.00,SW,229,0.0,3.0,53,0.00,,,0.00,meteohub,2013-01-09 15:46:00,
2013-01-09 07:51:00,41.4,25.5,-100.00,SW,229,0.0,2.0,53,0.00,,,0.00,meteohub,2013-01-09 15:51:00,
2013-01-09 07:56:00,41.9,26.1,-100.00,SW,229,0.0,0.0,53,0.00,,,0.00,meteohub,2013-01-09 15:56:00,
2013-01-09 08:01:00,42.3,25.9,-100.00,SW,229,0.0,0.0,52,0.00,,,0.00,meteohub,2013-01-09 16:01:00,
2013-01-09 08:06:00,42.6,26.2,-100.00,SW,229,0.0,0.0,52,0.00,,,0.00,meteohub,2013-01-09 16:06:00,
2013-01-09 08:11:00,42.8,25.9,-100.00,SW,229,0.0,0.0,51,0.00,,,0.00,meteohub,2013-01-09 16:11:00,
2013-01-09 08:16:00,43.2,26.2,-100.00,NNE,16,0.0,0.0,51,0.00,,,0.00,meteohub,2013-01-09 16:16:00,
2013-01-09 08:21:00,43.3,26.4,-100.00,NNE,16,0.0,0.0,51,0.00,,,0.00,meteohub,2013-01-09 16:21:00,
2013-01-09 08:26:00,43.5,26.6,-100.00,NNE,16,0.0,0.0,51,0.00,,,0.00,meteohub,2013-01-09 16:26:00,
2013-01-09 08:31:00,43.9,26.4,-100.00,NNE,16,0.0,0.0,50,0.00,,,0.00,meteohub,2013-01-09 16:31:00,
2013-01-09 08:36:00,44.1,26.6,-100.00,NNE,16,0.0,1.0,50,0.00,,,0.00,meteohub,2013-01-09 16:36:00,
2013-01-09 08:41:00,44.2,26.2,-100.00,NNE,16,0.0,1.0,49,0.00,,,0.00,meteohub,2013-01-09 16:41:00,
2013-01-09 08:46:00,44.6,26.6,-100.00,NNE,16,0.0,1.0,49,0.00,,,0.00,meteohub,2013-01-09 16:46:00,
2013-01-09 08:51:00,45.0,27.0,-100.00,NNE,33,0.0,1.0,49,0.00,,,0.00,meteohub,2013-01-09 16:51:00,
2013-01-09 08:57:00,45.1,27.1,-100.00,NNE,33,0.0,1.0,49,0.00,,,0.00,meteohub,2013-01-09 16:57:00,
2013-01-09 09:02:00,46.0,27.5,-100.00,NNE,33,0.0,1.0,48,0.00,,,0.00,meteohub,2013-01-09 17:02:00,
2013-01-09 09:07:00,46.8,27.7,-100.00,NNE,33,0.0,0.0,47,0.00,,,0.00,meteohub,2013-01-09 17:07:00,
2013-01-09 09:12:00,47.1,27.9,-100.00,NNE,33,0.0,0.0,47,0.00,,,0.00,meteohub,2013-01-09 17:12:00,
2013-01-09 09:17:00,47.7,27.9,-100.00,NNE,33,0.0,0.0,46,0.00,,,0.00,meteohub,2013-01-09 17:17:00,
2013-01-09 09:22:00,48.0,28.2,-100.00,NNE,33,0.0,0.0,46,0.00,,,0.00,meteohub,2013-01-09 17:22:00,
2013-01-09 09:27:00,48.6,28.2,-100.00,NNE,33,0.0,0.0,45,0.00,,,0.00,meteohub,2013-01-09 17:27:00,
2013-01-09 09:32:00,48.7,28.4,-100.00,ENE,59,0.0,0.0,45,0.00,,,0.00,meteohub,2013-01-09 17:32:00,
2013-01-09 09:37:00,49.3,28.8,-100.00,ENE,59,0.0,1.0,45,0.00,,,0.00,meteohub,2013-01-09 17:37:00,
2013-01-09 09:42:00,49.8,28.8,-100.00,ENE,59,0.0,2.0,44,0.00,,,0.00,meteohub,2013-01-09 17:42:00,
2013-01-09 09:47:00,50.4,28.8,-100.00,ENE,59,0.0,2.0,43,0.00,,,0.00,meteohub,2013-01-09 17:47:00,
2013-01-09 09:52:00,51.1,28.8,-100.00,ENE,59,0.0,1.0,42,0.00,,,0.00,meteohub,2013-01-09 17:52:00,
2013-01-09 09:57:00,51.4,28.6,-100.00,NE,47,3.0,3.0,41,0.00,,,0.00,meteohub,2013-01-09 17:57:00,
2013-01-09 10:02:00,52.2,28.6,-100.00,NNE,28,2.0,3.0,40,0.00,,,0.00,meteohub,2013-01-09 18:02:00,
2013-01-09 10:07:00,52.3,28.8,-100.00,NNE,28,0.0,4.0,40,0.00,,,0.00,meteohub,2013-01-09 18:07:00,
2013-01-09 10:12:00,53.2,28.9,-100.00,NNE,18,2.0,4.0,39,0.00,,,0.00,meteohub,2013-01-09 18:12:00,
2013-01-09 10:17:00,53.6,29.3,-100.00,NNE,18,0.0,4.0,39,0.00,,,0.00,meteohub,2013-01-09 18:17:00,
2013-01-09 10:22:00,53.8,29.5,-100.00,NNE,18,1.0,4.0,39,0.00,,,0.00,meteohub,2013-01-09 18:22:00,
2013-01-09 10:27:00,54.0,28.9,-100.00,NNE,18,0.0,3.0,38,0.00,,,0.00,meteohub,2013-01-09 18:27:00,
2013-01-09 10:32:00,54.5,29.5,-100.00,NNE,18,2.0,3.0,38,0.00,,,0.00,meteohub,2013-01-09 18:32:00,
2013-01-09 10:37:00,55.0,29.3,-100.00,NNE,19,3.0,3.0,37,0.00,,,0.00,meteohub,2013-01-09 18:37:00,
2013-01-09 10:41:00,55.6,29.1,-100.00,NNE,21,2.0,4.0,36,0.00,,,0.00,meteohub,2013-01-09 18:41:00,
2013-01-09 10:42:00,55.6,29.1,-100.00,NNE,21,3.0,4.0,36,0.00,,,0.00,meteohub,2013-01-09 18:42:00,
2013-01-09 10:44:00,55.8,29.8,-100.00,NNE,21,0.0,4.0,37,0.00,,,0.00,meteohub,2013-01-09 18:44:00,
2013-01-09 10:45:00,55.8,29.8,-100.00,NNE,21,1.0,5.0,37,0.00,,,0.00,meteohub,2013-01-09 18:45:00,
2013-01-09 10:48:00,55.9,29.3,-100.00,NNE,21,0.0,5.0,36,0.00,,,0.00,meteohub,2013-01-09 18:48:00,
2013-01-09 10:49:00,55.9,29.3,-100.00,NNE,21,3.0,5.0,36,0.00,,,0.00,meteohub,2013-01-09 18:49:00,
2013-01-09 10:54:00,56.5,29.1,-100.00,NNE,21,2.0,5.0,35,0.00,,,0.00,meteohub,2013-01-09 18:54:00,
2013-01-09 10:59:00,57.0,28.9,-100.00,NNE,24,0.0,4.0,34,0.00,,,0.00,meteohub,2013-01-09 18:59:00,
2013-01-09 11:04:00,57.0,28.9,-100.00,NNE,24,2.0,4.0,34,0.00,,,0.00,meteohub,2013-01-09 19:04:00,
2013-01-09 11:09:00,57.0,28.9,-100.00,NNE,24,0.0,4.0,34,0.00,,,0.00,meteohub,2013-01-09 19:09:00,
2013-01-09 11:14:00,57.2,28.4,-100.00,NNE,24,0.0,3.0,33,0.00,,,0.00,meteohub,2013-01-09 19:14:00,
2013-01-09 11:19:00,57.0,28.9,-100.00,NNE,24,1.0,3.0,34,0.00,,,0.00,meteohub,2013-01-09 19:19:00,
2013-01-09 11:24:00,57.2,28.4,-100.00,NNE,24,0.0,3.0,33,0.00,,,0.00,meteohub,2013-01-09 19:24:00,
2013-01-09 11:29:00,57.4,28.6,-100.00,NNE,24,0.0,4.0,33,0.00,,,0.00,meteohub,2013-01-09 19:29:00,
2013-01-09 11:34:00,57.7,29.5,-100.00,NNE,24,1.0,4.0,34,0.00,,,0.00,meteohub,2013-01-09 19:34:00,
2013-01-09 11:39:00,58.1,29.1,-100.00,NNE,24,1.0,4.0,33,0.00,,,0.00,meteohub,2013-01-09 19:39:00,
2013-01-09 11:44:00,58.3,29.3,-100.00,NNE,24,3.0,3.0,33,0.00,,,0.00,meteohub,2013-01-09 19:44:00,
2013-01-09 11:49:00,58.5,29.5,-100.00,NNE,24,2.0,4.0,33,0.00,,,0.00,meteohub,2013-01-09 19:49:00,
2013-01-09 11:54:00,59.4,29.5,-100.00,NNE,24,2.0,4.0,32,0.00,,,0.00,meteohub,2013-01-09 19:54:00,
2013-01-09 11:59:00,59.9,29.1,-100.00,NNE,24,4.0,5.0,31,0.00,,,0.00,meteohub,2013-01-09 19:59:00,
2013-01-09 12:04:00,60.3,29.5,-100.00,NNE,24,3.0,5.0,31,0.00,,,0.00,meteohub,2013-01-09 20:04:00,
2013-01-09 12:09:00,60.3,29.5,-100.00,NNE,24,3.0,5.0,31,0.00,,,0.00,meteohub,2013-01-09 20:09:00,
2013-01-09 12:14:00,60.4,28.9,-100.00,NNE,24,0.0,4.0,30,0.00,,,0.00,meteohub,2013-01-09 20:14:00,
2013-01-09 12:19:00,60.6,28.9,-100.00,NNE,24,0.0,4.0,30,0.00,,,0.00,meteohub,2013-01-09 20:19:00,
2013-01-09 12:24:00,60.6,29.8,-100.00,NNE,24,2.0,4.0,31,0.00,,,0.00,meteohub,2013-01-09 20:24:00,
2013-01-09 12:29:00,61.2,29.5,-100.00,NNE,26,0.0,4.0,30,0.00,,,0.00,meteohub,2013-01-09 20:29:00,
2013-01-09 12:34:00,62.1,30.2,-100.00,NNE,26,2.0,5.0,30,0.00,,,0.00,meteohub,2013-01-09 20:34:00,
2013-01-09 12:39:00,62.2,29.7,-100.00,NNE,28,3.0,5.0,29,0.00,,,0.00,meteohub,2013-01-09 20:39:00,
2013-01-09 12:44:00,62.2,29.7,-100.00,NNE,28,2.0,5.0,29,0.00,,,0.00,meteohub,2013-01-09 20:44:00,
2013-01-09 12:49:00,62.4,29.7,-100.00,NNE,28,2.0,4.0,29,0.00,,,0.00,meteohub,2013-01-09 20:49:00,
2013-01-09 12:54:00,63.0,29.3,-100.00,NNE,28,3.0,4.0,28,0.00,,,0.00,meteohub,2013-01-09 20:54:00,
2013-01-09 13:00:00,62.8,29.1,-100.00,NE,48,0.0,4.0,28,0.00,,,0.00,meteohub,2013-01-09 21:00:00,
2013-01-09 13:05:00,63.0,29.3,-100.00,East,93,3.0,5.0,28,0.00,,,0.00,meteohub,2013-01-09 21:05:00,
2013-01-09 13:10:00,63.1,29.5,-100.00,East,82,5.0,5.0,28,0.00,,,0.00,meteohub,2013-01-09 21:10:00,
2013-01-09 13:15:00,63.9,30.2,-100.00,East,92,3.0,6.0,28,0.00,,,0.00,meteohub,2013-01-09 21:15:00,
2013-01-09 13:20:00,63.9,30.2,-100.00,East,89,7.0,7.0,28,0.00,,,0.00,meteohub,2013-01-09 21:20:00,
2013-01-09 13:25:00,63.9,30.2,-100.00,East,99,3.0,7.0,28,0.00,,,0.00,meteohub,2013-01-09 21:25:00,
2013-01-09 13:30:00,64.2,30.4,-100.00,East,95,0.0,7.0,28,0.00,,,0.00,meteohub,2013-01-09 21:30:00,
2013-01-09 13:35:00,64.2,29.5,-100.00,East,96,5.0,7.0,27,0.00,,,0.00,meteohub,2013-01-09 21:35:00,
2013-01-09 13:40:00,64.8,30.0,-100.00,East,100,3.0,6.0,27,0.00,,,0.00,meteohub,2013-01-09 21:40:00,
2013-01-09 13:45:00,64.6,29.8,-100.00,East,99,2.0,6.0,27,0.00,,,0.00,meteohub,2013-01-09 21:45:00,
2013-01-09 13:50:00,64.2,30.4,-100.00,East,94,0.0,6.0,28,0.00,,,0.00,meteohub,2013-01-09 21:50:00,
2013-01-09 13:55:00,64.6,30.7,-100.00,East,94,2.0,6.0,28,0.00,,,0.00,meteohub,2013-01-09 21:55:00,
2013-01-09 14:00:00,64.8,30.0,-100.00,East,98,5.0,6.0,27,0.00,,,0.00,meteohub,2013-01-09 22:00:00,
2013-01-09 14:05:00,65.3,30.4,-100.00,ESE,117,5.0,7.0,27,0.00,,,0.00,meteohub,2013-01-09 22:05:00,
2013-01-09 14:10:00,65.7,30.7,-100.00,SE,137,4.0,7.0,27,0.00,,,0.00,meteohub,2013-01-09 22:10:00,
2013-01-09 14:15:00,65.8,30.0,-100.00,SW,223,9.0,9.0,26,0.00,,,0.00,meteohub,2013-01-09 22:15:00,
2013-01-09 14:20:00,65.8,30.0,-100.00,SSW,192,12.0,14.0,26,0.00,,,0.00,meteohub,2013-01-09 22:20:00,
2013-01-09 14:25:00,65.1,30.4,-100.00,SSW,197,10.0,16.0,27,0.00,,,0.00,meteohub,2013-01-09 22:25:00,
2013-01-09 14:30:00,65.3,30.4,-100.00,SSW,204,8.0,16.0,27,0.00,,,0.00,meteohub,2013-01-09 22:30:00,
2013-01-09 14:35:00,65.8,30.9,-100.00,South,182,4.0,16.0,27,0.00,,,0.00,meteohub,2013-01-09 22:35:00,
2013-01-09 14:40:00,66.4,30.4,-100.00,SW,225,4.0,14.0,26,0.00,,,0.00,meteohub,2013-01-09 22:40:00,
2013-01-09 14:45:00,65.5,30.6,-100.00,SSW,201,4.0,14.0,27,0.00,,,0.00,meteohub,2013-01-09 22:45:00,
2013-01-09 14:50:00,65.7,30.7,-100.00,SSW,211,3.0,11.0,27,0.00,,,0.00,meteohub,2013-01-09 22:50:00,
2013-01-09 14:55:00,66.0,30.2,-100.00,SW,217,4.0,11.0,26,0.00,,,0.00,meteohub,2013-01-09 22:55:00,
2013-01-09 15:00:00,65.3,30.4,-100.00,SW,214,5.0,11.0,27,0.00,,,0.00,meteohub,2013-01-09 23:00:00,
2013-01-09 15:05:00,64.8,30.0,-100.00,SW,220,6.0,12.0,27,0.00,,,0.00,meteohub,2013-01-09 23:05:00,
2013-01-09 15:10:00,64.9,30.2,-100.00,SSW,209,7.0,12.0,27,0.00,,,0.00,meteohub,2013-01-09 23:10:00,
2013-01-09 15:15:00,64.6,29.8,-100.00,SW,215,10.0,12.0,27,0.00,,,0.00,meteohub,2013-01-09 23:15:00,
2013-01-09 15:20:00,64.0,30.2,-100.00,WSW,240,6.0,13.0,28,0.00,,,0.00,meteohub,2013-01-09 23:20:00,
2013-01-09 15:25:00,64.0,30.2,-100.00,SSW,213,7.0,13.0,28,0.00,,,0.00,meteohub,2013-01-09 23:25:00,
2013-01-09 15:30:00,64.0,30.2,-100.00,SW,220,6.0,12.0,28,0.00,,,0.00,meteohub,2013-01-09 23:30:00,
2013-01-09 15:35:00,64.0,30.2,-100.00,SW,217,4.0,12.0,28,0.00,,,0.00,meteohub,2013-01-09 23:35:00,
2013-01-09 15:40:00,63.9,30.2,-100.00,SW,217,5.0,12.0,28,0.00,,,0.00,meteohub,2013-01-09 23:40:00,
2013-01-09 15:45:00,63.7,30.0,-100.00,SW,232,6.0,11.0,28,0.00,,,0.00,meteohub,2013-01-09 23:45:00,
2013-01-09 15:50:00,64.0,30.2,-100.00,SW,222,4.0,9.0,28,0.00,,,0.00,meteohub,2013-01-09 23:50:00,
2013-01-09 15:55:00,63.7,30.0,-100.00,SSW,199,7.0,12.0,28,0.00,,,0.00,meteohub,2013-01-09 23:55:00,
2013-01-09 16:00:00,63.3,29.7,-100.00,SSW,192,10.0,14.0,28,0.00,,,0.00,meteohub,2013-01-10 00:00:00,
2013-01-09 16:05:00,63.5,29.8,-100.00,SSW,210,8.0,14.0,28,0.00,,,0.00,meteohub,2013-01-10 00:05:00,
2013-01-09 16:10:00,63.3,29.7,-100.00,SSW,202,7.0,14.0,28,0.00,,,0.00,meteohub,2013-01-10 00:10:00,
2013-01-09 16:15:00,63.1,29.5,-100.00,SSW,192,9.0,14.0,28,0.00,,,0.00,meteohub,2013-01-10 00:15:00,
2013-01-09 16:20:00,63.1,29.5,-100.00,SW,217,8.0,13.0,28,0.00,,,0.00,meteohub,2013-01-10 00:20:00,
2013-01-09 16:25:00,63.0,29.3,-100.00,SSW,211,6.0,14.0,28,0.00,,,0.00,meteohub,2013-01-10 00:25:00,
2013-01-09 16:30:00,63.0,29.3,-100.00,SSW,210,5.0,14.0,28,0.00,,,0.00,meteohub,2013-01-10 00:30:00,
2013-01-09 16:35:00,62.8,29.1,-100.00,SSW,210,9.0,15.0,28,0.00,,,0.00,meteohub,2013-01-10 00:35:00,
2013-01-09 16:40:00,62.8,29.1,-100.00,SW,221,7.0,15.0,28,0.00,,,0.00,meteohub,2013-01-10 00:40:00,
2013-01-09 16:45:00,62.4,29.7,-100.00,SSW,202,5.0,12.0,29,0.00,,,0.00,meteohub,2013-01-10 00:45:00,
2013-01-09 16:50:00,62.4,29.7,-100.00,SSW,201,5.0,12.0,29,0.00,,,0.00,meteohub,2013-01-10 00:50:00,
2013-01-09 16:55:00,62.6,29.8,-100.00,SW,230,5.0,11.0,29,0.00,,,0.00,meteohub,2013-01-10 00:55:00,
2013-01-09 17:00:00,62.4,29.7,-100.00,SW,220,4.0,11.0,29,0.00,,,0.00,meteohub,2013-01-10 01:00:00,
2013-01-09 17:05:00,62.2,29.7,-100.00,SW,225,3.0,10.0,29,0.00,,,0.00,meteohub,2013-01-10 01:05:00,
2013-01-09 17:10:00,62.2,30.4,-100.00,WSW,245,7.0,10.0,30,0.00,,,0.00,meteohub,2013-01-10 01:10:00,
2013-01-09 17:15:00,62.1,29.5,-100.00,WSW,257,5.0,9.0,29,0.00,,,0.00,meteohub,2013-01-10 01:15:00,
2013-01-09 17:20:00,61.9,30.0,-100.00,WSW,256,6.0,10.0,30,0.00,,,0.00,meteohub,2013-01-10 01:20:00,
2013-01-09 17:25:00,61.3,28.8,-100.00,WSW,255,4.0,10.0,29,0.00,,,0.00,meteohub,2013-01-10 01:25:00,
2013-01-09 17:30:00,61.3,29.7,-100.00,WSW,251,4.0,7.0,30,0.00,,,0.00,meteohub,2013-01-10 01:30:00,
2013-01-09 17:35:00,61.3,29.7,-100.00,SW,234,4.0,8.0,30,0.00,,,0.00,meteohub,2013-01-10 01:35:00,
2013-01-09 17:40:00,61.3,29.7,-100.00,WSW,252,4.0,9.0,30,0.00,,,0.00,meteohub,2013-01-10 01:40:00,
2013-01-09 17:45:00,61.2,29.5,-100.00,WSW,238,2.0,11.0,30,0.00,,,0.00,meteohub,2013-01-10 01:45:00,
2013-01-09 17:51:00,61.0,29.3,-100.00,West,263,7.0,11.0,30,0.00,,,0.00,meteohub,2013-01-10 01:51:00,
2013-01-09 17:56:00,61.0,29.3,-100.00,WSW,253,2.0,11.0,30,0.00,,,0.00,meteohub,2013-01-10 01:56:00,
2013-01-09 18:01:00,61.0,29.3,-100.00,SW,221,2.0,10.0,30,0.00,,,0.00,meteohub,2013-01-10 02:01:00,
2013-01-09 18:06:00,61.0,29.3,-100.00,WSW,240,9.0,10.0,30,0.00,,,0.00,meteohub,2013-01-10 02:06:00,
2013-01-09 18:11:00,61.2,29.5,-100.00,SW,215,1.0,20.0,30,0.00,,,0.00,meteohub,2013-01-10 02:11:00,
2013-01-09 18:16:00,61.3,29.7,-100.00,SW,229,12.0,20.0,30,0.00,,,0.00,meteohub,2013-01-10 02:16:00,
2013-01-09 18:21:00,61.3,28.8,-100.00,SW,219,2.0,20.0,29,0.00,,,0.00,meteohub,2013-01-10 02:21:00,
2013-01-09 18:26:00,61.5,28.9,-100.00,SW,232,6.0,18.0,29,0.00,,,0.00,meteohub,2013-01-10 02:26:00,
2013-01-09 18:31:00,61.5,28.9,-100.00,SW,236,7.0,22.0,29,0.00,,,0.00,meteohub,2013-01-10 02:31:00,
2013-01-09 18:36:00,61.5,28.9,-100.00,South,185,5.0,22.0,29,0.00,,,0.00,meteohub,2013-01-10 02:36:00,
2013-01-09 18:41:00,61.5,28.9,-100.00,WSW,242,7.0,22.0,29,0.00,,,0.00,meteohub,2013-01-10 02:41:00,
2013-01-09 18:46:00,61.3,28.8,-100.00,SW,231,13.0,22.0,29,0.00,,,0.00,meteohub,2013-01-10 02:46:00,
2013-01-09 18:51:00,61.5,28.9,-100.00,SW,232,10.0,22.0,29,0.00,,,0.00,meteohub,2013-01-10 02:51:00,
2013-01-09 18:56:00,61.5,28.9,-100.00,SSW,193,18.0,22.0,29,0.00,,,0.00,meteohub,2013-01-10 02:56:00,
2013-01-09 19:01:00,61.9,28.4,-100.00,SW,221,8.0,25.0,28,0.00,,,0.00,meteohub,2013-01-10 03:01:00,
2013-01-09 19:06:00,62.1,29.5,-100.00,SSW,211,22.0,25.0,29,0.00,,,0.00,meteohub,2013-01-10 03:06:00,
2013-01-09 19:11:00,62.4,29.7,-100.00,SSW,201,12.0,28.0,29,0.00,,,0.00,meteohub,2013-01-10 03:11:00,
2013-01-09 19:16:00,62.4,28.0,-100.00,SW,229,11.0,28.0,27,0.00,,,0.00,meteohub,2013-01-10 03:16:00,
2013-01-09 19:21:00,62.2,27.9,-100.00,SSW,213,13.0,32.0,27,0.00,,,0.00,meteohub,2013-01-10 03:21:00,
2013-01-09 19:26:00,62.2,27.9,-100.00,SW,214,18.0,32.0,27,0.00,,,0.00,meteohub,2013-01-10 03:26:00,
2013-01-09 19:31:00,62.2,28.8,-100.00,South,190,18.0,29.0,28,0.00,,,0.00,meteohub,2013-01-10 03:31:00,
2013-01-09 19:36:00,62.1,28.6,-100.00,SSW,209,23.0,29.0,28,0.00,,,0.00,meteohub,2013-01-10 03:36:00,
2013-01-09 19:41:00,61.5,28.9,-100.00,South,190,15.0,30.0,29,0.00,,,0.00,meteohub,2013-01-10 03:41:00,
2013-01-09 19:46:00,61.3,28.8,-100.00,SSW,200,15.0,31.0,29,0.00,,,0.00,meteohub,2013-01-10 03:46:00,
2013-01-09 19:51:00,61.5,29.8,-100.00,SSW,209,22.0,31.0,30,0.00,,,0.00,meteohub,2013-01-10 03:51:00,
2013-01-09 19:56:00,61.3,28.8,-100.00,SSW,205,22.0,29.0,29,0.00,,,0.00,meteohub,2013-01-10 03:56:00,
2013-01-09 20:01:00,61.3,28.8,-100.00,SW,215,20.0,34.0,29,0.00,,,0.00,meteohub,2013-01-10 04:01:00,
2013-01-09 20:06:00,61.2,29.5,-100.00,SW,216,25.0,34.0,30,0.00,,,0.00,meteohub,2013-01-10 04:06:00,
2013-01-09 20:11:00,61.0,29.3,-100.00,SSW,213,25.0,28.0,30,0.00,,,0.00,meteohub,2013-01-10 04:11:00,
2013-01-09 20:16:00,60.6,29.8,-100.00,SSW,205,19.0,31.0,31,0.00,,,0.00,meteohub,2013-01-10 04:16:00,
2013-01-09 20:21:00,60.6,29.8,-100.00,SSW,210,21.0,33.0,31,0.00,,,0.00,meteohub,2013-01-10 04:21:00,
2013-01-09 20:26:00,60.8,30.0,-100.00,SSW,196,10.0,36.0,31,0.00,,,0.00,meteohub,2013-01-10 04:26:00,
2013-01-09 20:31:00,61.0,30.9,-100.00,SSW,200,17.0,36.0,32,0.00,,,0.00,meteohub,2013-01-10 04:31:00,
2013-01-09 20:36:00,60.8,30.7,-100.00,SW,235,16.0,36.0,32,0.00,,,0.00,meteohub,2013-01-10 04:36:00,
2013-01-09 20:41:00,60.4,30.4,-100.00,SSW,212,18.0,30.0,32,0.00,,,0.00,meteohub,2013-01-10 04:41:00,
2013-01-09 20:46:00,60.3,30.2,-100.00,SW,219,15.0,30.0,32,0.00,,,0.00,meteohub,2013-01-10 04:46:00,
2013-01-09 20:51:00,60.3,30.2,-100.00,SSW,209,21.0,37.0,32,0.00,,,0.00,meteohub,2013-01-10 04:51:00,
2013-01-09 20:56:00,60.3,30.2,-100.00,SSW,205,17.0,37.0,32,0.00,,,0.00,meteohub,2013-01-10 04:56:00,
2013-01-09 21:01:00,60.4,30.4,-100.00,SSW,200,17.0,37.0,32,0.00,,,0.00,meteohub,2013-01-10 05:01:00,
2013-01-09 21:03:00,60.3,30.2,-100.00,SW,215,25.0,37.0,32,0.00,,,0.00,meteohub,2013-01-10 05:03:00,
2013-01-09 21:08:00,59.9,30.7,-100.00,SSW,199,13.0,36.0,33,0.00,,,0.00,meteohub,2013-01-10 05:08:00,
2013-01-09 21:13:00,60.1,30.9,-100.00,SSW,209,15.0,36.0,33,0.00,,,0.00,meteohub,2013-01-10 05:13:00,
2013-01-09 21:18:00,60.1,30.2,-100.00,SSW,212,22.0,35.0,32,0.00,,,0.00,meteohub,2013-01-10 05:18:00,
2013-01-09 21:23:00,60.1,30.9,-100.00,SW,217,24.0,31.0,33,0.00,,,0.00,meteohub,2013-01-10 05:23:00,
2013-01-09 21:28:00,60.1,30.9,-100.00,SW,220,12.0,30.0,33,0.00,,,0.00,meteohub,2013-01-10 05:28:00,
2013-01-09 21:33:00,59.7,30.6,-100.00,SSW,205,15.0,29.0,33,0.00,,,0.00,meteohub,2013-01-10 05:33:00,
2013-01-09 21:38:00,59.5,30.4,-100.00,SSW,211,16.0,27.0,33,0.00,,,0.00,meteohub,2013-01-10 05:38:00,
2013-01-09 21:43:00,59.5,30.4,-100.00,SW,223,22.0,33.0,33,0.00,,,0.00,meteohub,2013-01-10 05:43:00,
2013-01-09 21:48:00,59.4,30.2,-100.00,SW,221,23.0,33.0,33,0.00,,,0.00,meteohub,2013-01-10 05:48:00,
2013-01-09 21:53:00,59.7,31.3,-100.00,SW,217,18.0,33.0,34,0.00,,,0.00,meteohub,2013-01-10 05:53:00,
2013-01-09 21:58:00,59.7,30.6,-100.00,SSW,211,21.0,34.0,33,0.00,,,0.00,meteohub,2013-01-10 05:58:00,
2013-01-09 22:03:00,59.4,30.2,-100.00,SSW,206,21.0,34.0,33,0.00,,,0.00,meteohub,2013-01-10 06:03:00,
2013-01-09 22:08:00,59.0,30.7,-100.00,SSW,197,9.0,33.0,34,0.00,,,0.00,meteohub,2013-01-10 06:08:00,
2013-01-09 22:13:00,58.6,30.4,-100.00,SW,236,15.0,33.0,34,0.00,,,0.00,meteohub,2013-01-10 06:13:00,
2013-01-09 22:18:00,58.5,30.2,-100.00,SSW,205,20.0,33.0,34,0.00,,,0.00,meteohub,2013-01-10 06:18:00,
2013-01-09 22:24:00,58.6,31.1,-100.00,SW,231,24.0,32.0,35,0.00,,,0.00,meteohub,2013-01-10 06:24:00,
2013-01-09 22:29:00,58.8,30.6,-100.00,SSW,201,26.0,32.0,34,0.00,,,0.00,meteohub,2013-01-10 06:29:00,
2013-01-09 22:34:00,58.5,30.9,-100.00,SSW,211,15.0,33.0,35,0.00,,,0.00,meteohub,2013-01-10 06:34:00,
2013-01-09 22:39:00,58.3,30.7,-100.00,SSW,210,27.0,33.0,35,0.00,,,0.00,meteohub,2013-01-10 06:39:00,
2013-01-09 22:44:00,58.1,29.8,-100.00,SW,223,13.0,33.0,34,0.00,,,0.00,meteohub,2013-01-10 06:44:00,
2013-01-09 22:49:00,58.1,29.8,-100.00,SW,218,26.0,32.0,34,0.00,,,0.00,meteohub,2013-01-10 06:49:00,
2013-01-09 22:54:00,58.3,30.7,-100.00,SSW,212,20.0,30.0,35,0.00,,,0.00,meteohub,2013-01-10 06:54:00,
2013-01-09 22:59:00,58.6,31.1,-100.00,SW,227,15.0,32.0,35,0.00,,,0.00,meteohub,2013-01-10 06:59:00,
2013-01-09 23:04:00,58.5,29.5,-100.00,SSW,211,24.0,32.0,33,0.00,,,0.00,meteohub,2013-01-10 07:04:00,
2013-01-09 23:09:00,58.5,30.2,-100.00,SW,220,18.0,32.0,34,0.00,,,0.00,meteohub,2013-01-10 07:09:00,
2013-01-09 23:14:00,57.9,29.7,-100.00,SSW,196,21.0,31.0,34,0.00,,,0.00,meteohub,2013-01-10 07:14:00,
2013-01-09 23:19:00,57.6,29.5,-100.00,SSW,200,20.0,31.0,34,0.00,,,0.00,meteohub,2013-01-10 07:19:00,
2013-01-09 23:24:00,57.4,30.0,-100.00,SW,223,16.0,31.0,35,0.00,,,0.00,meteohub,2013-01-10 07:24:00,
2013-01-09 23:29:00,57.6,30.7,-100.00,SSW,201,10.0,30.0,36,0.00,,,0.00,meteohub,2013-01-10 07:29:00,
2013-01-09 23:34:00,57.6,29.5,-100.00,SW,223,12.0,30.0,34,0.00,,,0.00,meteohub,2013-01-10 07:34:00,
2013-01-09 23:39:00,57.4,30.0,-100.00,SSW,202,16.0,30.0,35,0.00,,,0.00,meteohub,2013-01-10 07:39:00,
2013-01-09 23:44:00,57.2,30.6,-100.00,SSW,211,11.0,21.0,36,0.00,,,0.00,meteohub,2013-01-10 07:44:00,
2013-01-09 23:49:00,57.4,30.6,-100.00,SW,217,8.0,21.0,36,0.00,,,0.00,meteohub,2013-01-10 07:49:00,
2013-01-09 23:54:00,57.6,31.5,-100.00,South,180,14.0,21.0,37,0.00,,,0.00,meteohub,2013-01-10 07:54:00,
2013-01-09 23:59:00,57.7,31.6,-100.00,SW,228,9.0,19.0,37,0.00,,,0.00,meteohub,2013-01-10 07:59:00,